Location: Prairie State College
(41.5244°N, 87.6382°W)
Time: 05:00:13
(UTC-06:00)

MSX - Visible Passes

Search period start: 22 February 2018 00:00
Search period end: 04 March 2018 00:00
Orbit: 895 x 905 km, 98.7° (Epoch: 07 February)

Date Brightness Start Highest point End Pass type
(mag) Time Alt. Az. Time Alt. Az. Time Alt. Az.
22 Feb 6.9 03:47:50 10° ENE 03:49:36 11° E 03:51:21 10° ESE visible
22 Feb 3.9 05:26:17 10° NNE 05:32:05 87° ESE 05:37:52 10° SSW visible
23 Feb 6.8 03:50:10 10° ENE 03:52:24 12° E 03:54:37 10° ESE visible
23 Feb 3.9 05:29:02 10° NNE 05:34:51 89° WNW 05:40:37 10° SSW visible
24 Feb 6.8 03:52:36 10° ENE 03:55:12 13° E 03:57:47 10° ESE visible
24 Feb 3.8 05:31:48 10° NNE 05:37:36 85° WNW 05:43:22 10° SSW visible
25 Feb 6.8 03:55:06 10° ENE 03:58:00 14° E 04:00:54 10° ESE visible
25 Feb 3.8 05:34:34 10° NNE 05:40:22 81° WNW 05:46:08 10° SSW visible
26 Feb 6.7 03:57:37 10° NE 04:00:48 15° E 04:03:58 10° ESE visible
26 Feb 3.8 05:37:20 10° N 05:43:07 76° WNW 05:48:52 10° SSW visible
27 Feb 6.6 04:00:11 10° NE 04:03:36 16° E 04:07:00 10° SE visible
27 Feb 3.8 05:40:06 10° N 05:45:52 72° WNW 05:51:36 10° SSW visible
28 Feb 6.6 04:02:46 10° NE 04:06:24 17° E 04:10:00 10° SE visible
28 Feb 3.8 05:42:52 10° N 05:48:37 69° WNW 05:54:20 10° SSW visible
01 Mar 6.5 04:05:22 10° NE 04:09:11 18° E 04:13:00 10° SE visible
01 Mar 3.9 05:45:39 10° N 05:51:22 65° WNW 05:57:04 10° SSW visible
02 Mar 6.4 04:07:59 10° NE 04:11:59 19° E 04:15:59 10° SE visible
02 Mar 3.9 05:48:26 10° N 05:54:08 61° WNW 05:59:48 10° SSW visible
03 Mar 6.4 04:10:36 10° NE 04:14:47 20° E 04:18:56 10° SE visible
03 Mar 3.9 05:51:12 10° N 05:56:52 58° WNW 06:02:30 10° SSW visible
